Portada
METAR-TAF:

METAR-TAF

Aeropuertos :

Hamadán, Irán

latitud: 34-52-05N, longitud: 048-33-08E, altitud: 1757 m

Observación

El informe se hizo hace 59 minutos, a las 13:00 UTC
Viento 6 kt del sur
Temperatura 2°C
Humedad 47%
Presión 1019 hPa
Visibilidad 10 km o más
Escasas nubes a una altura de 4000 ft

METAR: OIHH 031300Z 19006KT 9999 FEW040 02/M08 Q1019 A3010

Hora: 17:29 (13:59 UTC)


TAF: falta

Observaciones y pronósticos meteorológicos de más de 4000 aeropuertos (mensajes METAR y TAF).

Los puntos amarillos y rojos representan las estaciones disponibles.

Ponga el ratón en el punto deseado para ver el nombre de la estación.

Haga clic para ver las observaciones y los pronósticos meteorológicos.

Para cambiar el mapa : haga clic en los botones verdes con una cruz de color negro para hacer un zoom, en el botón verde con un guión para alejar o en las flechas verdes para mapas adyacentes.


METAR-TAF: